[[{"header":{"parameterUnit":"m.s-1","parameterCategory":1,"la1":30.2991,"la2":30.254,"lo1":-89.0895,"lo2":-89.0444,"dy":0.0017,"dx":0.0017,"nx":28,"ny":28,"refTime":"2026-02-11T03:00:00:Z","depth":0,"parameterNumber":2,"parameterNumberName":"U-component_of_WINDS"},"data":[0,0,0,0,0,0,0,0,0,0,0,0,0,0,0,0,0,0,0,0,0,0,0,0,0,0,0,0,0,0,0,0,0,0,0,0,0,0,0,0,0,0,0,0,0,0,0,0,0,0,0,0,0,0,0,0,0,0,-2.5082,-2.5082,0,-2.5043,-2.5042,-2.5042,-2.4962,-2.496,-2.4959,-2.4957,-2.4918,-2.4919,-2.4919,0,0,0,0,0,0,0,0,0,0,0,0,0,-2.5092,-2.5092,-2.5083,-2.5082,-2.5082,-2.5043,-2.5042,-2.5042,-2.4962,-2.496,-2.4958,-2.4956,-2.4918,-2.4918,-2.4919,0,0,0,0,0,0,0,0,0,0,0,0,0,-2.5074,-2.5092,-2.5083,-2.5037,-2.5033,-2.5043,-2.5042,-2.5041,-2.4962,-2.496,-2.4958,-2.4955,-2.4918,-2.4918,-2.4919,-2.4971,0,0,-2.4921,-2.4921,0,0,0,0,0,0,0,0,-2.5075,-2.5073,-2.5044,-2.504,-2.5035,-2.5005,-2.5031,-2.5018,-2.4963,-2.4989,-2.4957,-2.4954,-2.4949,-2.4947,-2.4945,-2.4969,-2.4967,-2.4921,-2.4922,-2.4922,-2.4922,0,0,0,0,0,0,0,-2.5076,-2.5075,-2.5067,-2.5044,-2.5038,-2.5019,-2.5014,-2.5028,-2.4983,-2.4987,-2.4981,-2.4977,-2.4946,-2.4944,-2.4943,-2.4967,-2.4921,-2.4922,-2.4922,-2.4922,-2.5033,-2.5036,0,0,0,0,0,0,-2.5084,-2.5076,-2.5068,-2.5066,-2.5049,-2.5021,-2.5015,-2.5017,-2.4983,-2.4975,-2.4979,-2.4974,-2.4944,-2.4943,-2.4942,-2.5001,-2.4922,-2.4922,-2.4923,-2.5031,-2.5034,-2.5036,0,0,0,0,0,0,-2.5084,-2.5084,-2.507,-2.5069,-2.5066,-2.5024,-2.5026,-2.5017,-2.5015,-2.4977,-2.4969,-2.4986,-2.4942,-2.4941,-2.4964,-2.4999,-2.4923,-2.4923,-2.5028,-2.5032,-2.5035,-2.512,0,0,0,0,0,0,-2.5085,-2.5084,-2.5103,-2.507,-2.5066,-2.5093,-2.5028,-2.5018,-2.5017,-2.5009,-2.4981,-2.4974,-2.494,-2.4964,-2.4965,-2.4998,-2.4924,-2.5024,-2.5029,-2.5034,-2.5114,-2.5126,-2.5137,0,0,0,0,0,-2.5085,-2.5129,-2.5105,-2.5104,-2.5089,-2.5095,-2.5093,-2.5053,-2.502,-2.5039,-2.5014,-2.4975,-2.4994,-2.4967,-2.4968,-2.5001,-2.5022,-2.5028,-2.5033,-2.5109,-2.5124,-2.5137,0,0,0,0,0,0,-2.5167,-2.5124,-2.5096,-2.513,-2.5117,-2.5081,-2.5104,-2.507,-2.5066,-2.5059,-2.501,-2.5005,-2.5035,-2.502,-2.4991,-2.505,-2.5002,-2.5008,-2.5059,-2.5073,-2.5084,-2.5088,-2.4924,0,0,0,0,0,-2.5189,-2.5197,-2.5159,-2.5192,-2.5187,-2.5147,-2.5148,-2.5119,-2.5103,-2.5097,-2.5074,-2.5061,-2.5064,-2.5068,-2.5068,-2.5111,-2.5105,-2.5135,-2.5146,-2.5156,-2.5162,-2.5185,-2.5198,-2.5055,-2.5055,-2.5055,0,0,-2.5235,-2.5212,-2.522,-2.5208,-2.5194,-2.5205,-2.5143,-2.5156,-2.5163,-2.5099,-2.5121,-2.5103,-2.5086,-2.512,-2.5133,-2.5108,-2.52,-2.5163,-2.5171,-2.5172,-2.5192,-2.5206,-2.5218,-2.5059,-2.5058,-2.5058,0,0,-2.5323,-2.5306,-2.5333,-2.532,-2.53,-2.5273,-2.528,-2.525,-2.5236,-2.5256,-2.5209,-2.5217,-2.5223,-2.5213,-2.5209,-2.5294,-2.5258,-2.5296,-2.5356,-2.5379,-2.539,-2.54,-2.5432,-2.5443,-2.5302,-2.5302,-2.5302,0,-2.5383,-2.5395,-2.5351,-2.5368,-2.5364,-2.5306,-2.5334,-2.5324,-2.5305,-2.5305,-2.5277,-2.5284,-2.5268,-2.53,-2.5321,-2.5318,-2.5325,-2.5299,-2.5392,-2.5401,-2.541,-2.5439,-2.5451,-2.5307,-2.5306,-2.5306,-2.5305,0,-2.547,-2.548,-2.5504,-2.5487,-2.5487,-2.5509,-2.5469,-2.5473,-2.5444,-2.5421,-2.5443,-2.5422,-2.5418,-2.5423,-2.5394,-2.545,-2.5436,-2.54,-2.5351,-2.5429,-2.5456,-2.5467,-2.5314,-2.5312,-2.5311,-2.5309,0,0,-2.561,-2.5568,-2.5578,-2.557,-2.5544,-2.5551,-2.5571,-2.5566,-2.5572,-2.5561,-2.5578,-2.5585,-2.5552,-2.5547,-2.5517,-2.5537,-2.5608,-2.5499,-2.5498,-2.5521,-2.567,-2.5698,-2.5712,-2.5584,-2.5585,-2.5587,-2.5672,0,-2.5693,-2.5724,-2.5685,-2.5725,-2.5734,-2.5679,-2.5696,-2.5683,-2.5661,-2.5667,-2.5643,-2.5649,-2.5605,-2.5602,-2.5619,-2.5596,-2.5637,-2.5589,-2.56,-2.56,-2.5607,-2.5726,-2.5755,-2.5836,-2.5683,-2.5684,-2.5686,0,-2.5795,-2.5789,-2.583,-2.5801,-2.5804,-2.582,-2.5813,-2.5819,-2.5803,-2.5786,-2.5781,-2.5745,-2.5763,-2.5715,-2.574,-2.5708,-2.571,-2.5699,-2.5701,-2.5702,-2.5649,-2.5731,-2.5861,-2.5874,-2.5702,-2.57,-2.5699,0,-2.5894,-2.5896,-2.5921,-2.5916,-2.5883,-2.5896,-2.5883,-2.5865,-2.5865,-2.5859,-2.5859,-2.5856,-2.5855,-2.5854,-2.5819,-2.5786,-2.5849,-2.5797,-2.5837,-2.5838,-2.5853,-2.5853,-2.5987,-2.5853,-2.5853,-2.5853,-2.5852,0,-2.5992,-2.602,-2.5965,-2.5981,-2.601,-2.5965,-2.5996,-2.5977,-2.5962,-2.5973,-2.5925,-2.5938,-2.5889,-2.5897,-2.5869,-2.5896,-2.5895,-2.5883,-2.5875,-2.5888,-2.589,-2.5889,-2.5883,-2.5856,-2.5855,-2.5854,-2.5854,0,-2.6109,-2.6073,-2.6097,-2.6064,-2.6056,-2.608,-2.6052,-2.6066,-2.6041,-2.6057,-2.6058,-2.602,-2.6026,-2.599,-2.599,-2.5972,-2.6012,-2.5994,-2.6018,-2.6013,-2.6055,-2.6052,-2.6194,-2.6211,-2.6066,-2.6067,-2.6068,0,-2.6174,-2.6194,-2.6163,-2.6167,-2.6157,-2.6164,-2.6164,-2.6121,-2.6123,-2.6107,-2.6123,-2.6125,-2.6124,-2.6137,-2.611,-2.611,-2.6093,-2.6143,-2.6093,-2.6105,-2.6095,-2.6095,-2.6098,-2.6154,-2.6156,-2.6157,-2.6158,0,-2.6295,-2.6276,-2.6277,-2.6273,-2.6275,-2.6269,-2.6261,-2.6267,-2.622,-2.6226,-2.6231,-2.6231,-2.6231,-2.6234,-2.6229,-2.6217,-2.6181,-2.6174,-2.6184,-2.6197,-2.621,-2.6205,-2.6048,-2.6171,-2.617,-2.6169,-2.6169,-2.6168,-2.6388,-2.6404,-2.6385,-2.6388,-2.6377,-2.6371,-2.6382,-2.6359,-2.6363,-2.6359,-2.6333,-2.6344,-2.6329,-2.6318,-2.6309,-2.6317,-2.6294,-2.6307,-2.6311,-2.6315,-2.6323,-2.6208,-2.6316,-2.6316,-2.6315,-2.6315,-2.6315,0,-2.6507,-2.6492,-2.6496,-2.6486,-2.6489,-2.6453,-2.6443,-2.6448,-2.6458,-2.6446,-2.6446,-2.6454,-2.6457,-2.6431,-2.643,-2.6443,-2.6426,-2.6444,-2.6444,-2.6442,-2.6344,-2.6336,-2.6458,-2.6458,-2.6458,-2.6458,-2.6458,-2.6458,-2.657,-2.6594,-2.6574,-2.6593,-2.6578,-2.6588,-2.6585,-2.6579,-2.6569,-2.6579,-2.6582,-2.6564,-2.6547,-2.6545,-2.6547,-2.6539,-2.6542,-2.6566,-2.6553,-2.6462,-2.6448,-2.6435,-2.6428,-2.6567,-2.6567,-2.665,-2.6651,-2.6652]},{"header":{"parameterUnit":"m.s-1","parameterCategory":1,"la1":30.2991,"la2":30.254,"lo1":-89.0895,"lo2":-89.0444,"dy":0.0017,"dx":0.0017,"nx":28,"ny":28,"refTime":"2026-02-11T03:00:00:Z","depth":0,"parameterNumber":3,"parameterNumberName":"V-component_of_WINDS"},"data":[0,0,0,0,0,0,0,0,0,0,0,0,0,0,0,0,0,0,0,0,0,0,0,0,0,0,0,0,0,0,0,0,0,0,0,0,0,0,0,0,0,0,0,0,0,0,0,0,0,0,0,0,0,0,0,0,0,0,-3.2263,-3.2264,0,-3.2346,-3.2347,-3.2348,-3.2352,-3.2351,-3.235,-3.2349,-3.243,-3.2433,-3.2436,0,0,0,0,0,0,0,0,0,0,0,0,0,-3.2105,-3.2108,-3.2263,-3.2264,-3.2265,-3.2346,-3.2347,-3.2348,-3.2352,-3.2351,-3.235,-3.2349,-3.2429,-3.2433,-3.2437,0,0,0,0,0,0,0,0,0,0,0,0,0,-3.2179,-3.2109,-3.2263,-3.2277,-3.2279,-3.2346,-3.2347,-3.2349,-3.2353,-3.2351,-3.235,-3.2348,-3.2428,-3.2433,-3.2437,-3.2494,0,0,-3.2451,-3.2453,0,0,0,0,0,0,0,0,-3.2175,-3.2185,-3.2274,-3.2276,-3.2278,-3.2337,-3.2321,-3.2397,-3.2353,-3.2324,-3.2349,-3.2348,-3.24,-3.2407,-3.2426,-3.2498,-3.2501,-3.2452,-3.2454,-3.2456,-3.2458,0,0,0,0,0,0,0,-3.217,-3.2181,-3.2296,-3.2275,-3.2278,-3.2278,-3.2287,-3.2336,-3.2369,-3.2327,-3.2327,-3.2337,-3.2401,-3.2421,-3.2428,-3.2503,-3.2451,-3.2455,-3.2458,-3.246,-3.2628,-3.2629,0,0,0,0,0,0,-3.2162,-3.2177,-3.2293,-3.2298,-3.2222,-3.2282,-3.2292,-3.232,-3.2369,-3.2375,-3.2339,-3.2337,-3.2414,-3.2422,-3.2431,-3.2502,-3.2456,-3.2461,-3.2463,-3.2626,-3.2628,-3.263,0,0,0,0,0,0,-3.2159,-3.2173,-3.229,-3.2238,-3.2253,-3.2286,-3.2317,-3.2322,-3.2342,-3.2378,-3.2383,-3.2353,-3.2413,-3.2424,-3.2479,-3.2505,-3.2463,-3.2467,-3.2624,-3.2627,-3.2629,-3.2644,0,0,0,0,0,0,-3.2154,-3.2171,-3.2194,-3.2238,-3.2256,-3.2338,-3.2319,-3.2325,-3.2351,-3.235,-3.2393,-3.2398,-3.2413,-3.2472,-3.2484,-3.251,-3.247,-3.2622,-3.2625,-3.2628,-3.2642,-3.2647,-3.2652,0,0,0,0,0,-3.2149,-3.2193,-3.2195,-3.2209,-3.2285,-3.2339,-3.2349,-3.2366,-3.2353,-3.2375,-3.2399,-3.2397,-3.25,-3.2478,-3.2491,-3.2519,-3.262,-3.2624,-3.2628,-3.2639,-3.2646,-3.2651,0,0,0,0,0,0,-3.2149,-3.2199,-3.2202,-3.2262,-3.2297,-3.234,-3.2369,-3.2372,-3.241,-3.2407,-3.2425,-3.2435,-3.249,-3.251,-3.2484,-3.2578,-3.2559,-3.2565,-3.2563,-3.2569,-3.2574,-3.2568,-3.2474,0,0,0,0,0,-3.2157,-3.2198,-3.2239,-3.2289,-3.2306,-3.2335,-3.2359,-3.2369,-3.2405,-3.2419,-3.2446,-3.2479,-3.252,-3.2545,-3.2584,-3.2644,-3.2654,-3.267,-3.2675,-3.2679,-3.2685,-3.272,-3.2728,-3.2642,-3.2642,-3.2642,0,0,-3.2172,-3.2204,-3.2229,-3.229,-3.2317,-3.2359,-3.2347,-3.2391,-3.2422,-3.2425,-3.248,-3.2501,-3.2539,-3.2598,-3.2625,-3.2616,-3.2711,-3.2684,-3.2687,-3.2691,-3.2724,-3.2732,-3.2739,-3.2645,-3.2645,-3.2644,0,0,-3.2221,-3.225,-3.2295,-3.2324,-3.2367,-3.2386,-3.2397,-3.244,-3.2455,-3.251,-3.2514,-3.2551,-3.2619,-3.2647,-3.267,-3.2733,-3.2733,-3.2745,-3.2771,-3.2804,-3.2811,-3.2817,-3.284,-3.2848,-3.275,-3.275,-3.275,0,-3.2234,-3.2298,-3.2318,-3.2363,-3.239,-3.2397,-3.2443,-3.2469,-3.2522,-3.254,-3.253,-3.2618,-3.2644,-3.271,-3.2725,-3.2743,-3.2756,-3.274,-3.2809,-3.2815,-3.2821,-3.2843,-3.2852,-3.2751,-3.2751,-3.2751,-3.2751,0,-3.2313,-3.2358,-3.2389,-3.2442,-3.2472,-3.2517,-3.2543,-3.2571,-3.258,-3.26,-3.2656,-3.2689,-3.2735,-3.2751,-3.2758,-3.2818,-3.2812,-3.2805,-3.2786,-3.283,-3.2851,-3.286,-3.2753,-3.2752,-3.2752,-3.2752,0,0,-3.2364,-3.2429,-3.244,-3.2465,-3.2514,-3.2549,-3.2594,-3.2641,-3.2666,-3.2702,-3.2741,-3.28,-3.2794,-3.2821,-3.2831,-3.2861,-3.291,-3.2851,-3.2852,-3.2861,-3.2979,-3.2984,-3.2994,-3.2911,-3.2912,-3.2914,-3.2976,0,-3.2419,-3.2503,-3.2522,-3.2593,-3.2635,-3.2643,-3.2683,-3.2717,-3.2738,-3.2775,-3.2797,-3.2839,-3.2828,-3.2844,-3.2874,-3.2898,-3.2934,-3.2893,-3.2947,-3.2948,-3.2937,-3.3005,-3.301,-3.3068,-3.2984,-3.2986,-3.2987,0,-3.2495,-3.2536,-3.2611,-3.2657,-3.2675,-3.2711,-3.2757,-3.2793,-3.2831,-3.2844,-3.2875,-3.2883,-3.2931,-3.291,-3.2976,-3.2948,-3.2971,-3.2986,-3.2989,-3.2994,-3.297,-3.3013,-3.3086,-3.3095,-3.3,-3.2999,-3.2998,0,-3.2526,-3.2599,-3.2655,-3.2676,-3.273,-3.2755,-3.2778,-3.2816,-3.2844,-3.2883,-3.2901,-3.2945,-3.2969,-3.3002,-3.3022,-3.3005,-3.3087,-3.3067,-3.3099,-3.3098,-3.3116,-3.3114,-3.3194,-3.3129,-3.3129,-3.3129,-3.3129,0,-3.2586,-3.2632,-3.267,-3.2704,-3.2756,-3.2778,-3.2829,-3.2852,-3.2886,-3.2924,-3.2933,-3.2969,-3.2993,-3.3032,-3.3047,-3.31,-3.3111,-3.3122,-3.3126,-3.3122,-3.312,-3.3137,-3.3134,-3.3131,-3.3131,-3.313,-3.313,0,-3.2629,-3.2656,-3.2717,-3.2764,-3.2777,-3.2814,-3.2853,-3.2887,-3.2908,-3.2956,-3.2969,-3.3002,-3.3048,-3.3072,-3.3129,-3.3139,-3.3199,-3.32,-3.3187,-3.3188,-3.3219,-3.3216,-3.3313,-3.3327,-3.3252,-3.3253,-3.3253,0,-3.2665,-3.2702,-3.2754,-3.2781,-3.2806,-3.2849,-3.2878,-3.2901,-3.2931,-3.2979,-3.3007,-3.3054,-3.3094,-3.3167,-3.3196,-3.324,-3.3242,-3.3273,-3.3248,-3.3244,-3.3243,-3.3241,-3.3246,-3.3277,-3.3278,-3.3278,-3.3279,0,-3.2728,-3.274,-3.2783,-3.2831,-3.2866,-3.2904,-3.2941,-3.2963,-3.2992,-3.3025,-3.3074,-3.3104,-3.3164,-3.3211,-3.3258,-3.3281,-3.3285,-3.3287,-3.3296,-3.3293,-3.3284,-3.329,-3.3199,-3.3284,-3.3284,-3.3283,-3.3283,-3.3283,-3.277,-3.2803,-3.2846,-3.2893,-3.2924,-3.296,-3.2994,-3.3021,-3.3062,-3.3114,-3.3125,-3.3177,-3.3216,-3.3279,-3.3304,-3.3344,-3.3338,-3.3351,-3.3355,-3.3358,-3.3361,-3.3277,-3.3353,-3.3353,-3.3353,-3.3352,-3.3352,0,-3.2834,-3.2862,-3.2906,-3.2959,-3.2997,-3.2999,-3.3041,-3.3072,-3.3118,-3.3155,-3.3195,-3.3251,-3.3298,-3.333,-3.3377,-3.3403,-3.3407,-3.3415,-3.3413,-3.3419,-3.3363,-3.3351,-3.3412,-3.3412,-3.3412,-3.3412,-3.3412,-3.3412,-3.2872,-3.2929,-3.2947,-3.3019,-3.3047,-3.31,-3.3124,-3.3156,-3.3186,-3.325,-3.3289,-3.3311,-3.3347,-3.3397,-3.3439,-3.3447,-3.3464,-3.3473,-3.3481,-3.3429,-3.3423,-3.3417,-3.3405,-3.3476,-3.3477,-3.3534,-3.3534,-3.3535]}]]